User: anonymous   Login
Location: Unspecified
(0.0000°N, 0.0000°E)
Time: 19:51:31
(UTC+02:00)
Language:

ISS - Orbit

View from above orbital plane
View from above orbital plane
View from above satellite
View from above satellite

Ground track
Ground track

The orbit data is extracted from the following two-line orbital elements,

1 25544U 98067A   16211.56226791  .00016717  00000-0  10270-3 0  9028
2 25544  51.6389 206.6068 0001952  87.2690 272.8686 15.54938425 11570
Epoch (UTC): 29 July 2016 13:29:39
Eccentricity: 0.0001952
inclination: 51.6389°
perigee height: 401 km
apogee height: 403 km
right ascension of ascending node: 206.6068°
argument of perigee: 87.2690°
revolutions per day: 15.54938425
mean anomaly at epoch: 272.8686°
orbit number at epoch: 1157

The dashed part of the orbit path shows where the satellite is in the earth's shadow,  

DLR